PSBHZ MNLN-MSLP

Flight info

Callsign PSBHZ
Flight time 0h 58m
Altitude 6000
Route ALTEG DCT AMUVO DCT CAT
Aircraft C208/L-SDFGR/C

Departure

Time 2026-05-06 01:01
Airport Leon (Fanor Urroz) Airport (MNLN)

Arrival

Time 2026-05-06 02:00
Airport El Salvador International Airport Saint Óscar Arnulfo Romero y Galdámez (MSLP)
Time Latitude Longitude Altitude Speed Heading
2026-05-06 00:11 12.42952 -86.90529 336 ft 0 kts 272°
2026-05-06 00:54 12.42952 -86.90530 336 ft 2 kts 270°
2026-05-06 00:55 12.42936 -86.90569 336 ft 10 kts 265°
2026-05-06 00:55 12.42935 -86.90676 334 ft 19 kts 271°
2026-05-06 00:55 12.42937 -86.90742 334 ft 0 kts 266°
2026-05-06 00:59 12.42929 -86.90745 334 ft 4 kts 185°
2026-05-06 00:59 12.42919 -86.90707 334 ft 9 kts 86°
2026-05-06 00:59 12.42919 -86.90697 334 ft 0 kts 88°
2026-05-06 01:00 12.42920 -86.90652 335 ft 24 kts 89°
2026-05-06 01:00 12.42918 -86.90326 339 ft 66 kts 90°
2026-05-06 01:00 12.42940 -86.89784 420 ft 82 kts 83°
2026-05-06 01:00 12.42987 -86.89137 500 ft 100 kts 83°
2026-05-06 01:01 12.43023 -86.88396 660 ft 110 kts 78°
2026-05-06 01:01 12.43554 -86.87854 825 ft 119 kts
2026-05-06 01:01 12.44408 -86.87866 993 ft 127 kts 360°
2026-05-06 01:01 12.45310 -86.87957 1145 ft 136 kts 336°
2026-05-06 01:02 12.45891 -86.88703 1295 ft 143 kts 281°
2026-05-06 01:02 12.45829 -86.89725 1511 ft 143 kts 262°
2026-05-06 01:02 12.45716 -86.90722 1767 ft 140 kts 263°
2026-05-06 01:02 12.45605 -86.91707 2015 ft 139 kts 263°
2026-05-06 01:03 12.45495 -86.92701 2213 ft 142 kts 263°
2026-05-06 01:03 12.45386 -86.93713 2416 ft 145 kts 263°
2026-05-06 01:03 12.45276 -86.94751 2618 ft 147 kts 263°
2026-05-06 01:03 12.45166 -86.95805 2822 ft 150 kts 263°
2026-05-06 01:04 12.45058 -86.96873 3025 ft 151 kts 263°
2026-05-06 01:04 12.44954 -86.97944 3223 ft 152 kts 263°
2026-05-06 01:04 12.44847 -86.99018 3422 ft 152 kts 262°
2026-05-06 01:04 12.44465 -87.00004 3621 ft 149 kts 240°
2026-05-06 01:05 12.44176 -87.01017 3807 ft 150 kts 269°
2026-05-06 01:05 12.44272 -87.02082 4007 ft 150 kts 277°
2026-05-06 01:05 12.44396 -87.03143 4206 ft 150 kts 277°
2026-05-06 01:05 12.44525 -87.04199 4404 ft 149 kts 277°
2026-05-06 01:06 12.44655 -87.05238 4601 ft 149 kts 277°
2026-05-06 01:06 12.44785 -87.06290 4799 ft 149 kts 278°
2026-05-06 01:06 12.44915 -87.07339 4996 ft 149 kts 278°
2026-05-06 01:06 12.45045 -87.08388 5194 ft 148 kts 278°
2026-05-06 01:07 12.45176 -87.09433 5391 ft 148 kts 278°
2026-05-06 01:07 12.45305 -87.10479 5587 ft 148 kts 278°
2026-05-06 01:07 12.45434 -87.11523 5786 ft 148 kts 278°
2026-05-06 01:07 12.45562 -87.12567 5981 ft 148 kts 278°
2026-05-06 01:08 12.45697 -87.13650 6018 ft 160 kts 279°
2026-05-06 01:08 12.45844 -87.14815 6029 ft 170 kts 278°
2026-05-06 01:08 12.45996 -87.16044 6034 ft 178 kts 278°
2026-05-06 01:08 12.46152 -87.17318 6045 ft 183 kts 278°
2026-05-06 01:09 12.46314 -87.18625 6045 ft 187 kts 278°
2026-05-06 01:09 12.46478 -87.19951 6051 ft 189 kts 278°
2026-05-06 01:09 12.46644 -87.21289 6055 ft 190 kts 278°
2026-05-06 01:09 12.46809 -87.22636 6044 ft 192 kts 278°
2026-05-06 01:10 12.46976 -87.23992 6035 ft 192 kts 278°
2026-05-06 01:10 12.47143 -87.25354 6037 ft 193 kts 278°
2026-05-06 01:10 12.47313 -87.26724 6036 ft 194 kts 278°
2026-05-06 01:10 12.47480 -87.28086 6036 ft 193 kts 278°
2026-05-06 01:11 12.47649 -87.29442 6035 ft 192 kts 278°
2026-05-06 01:11 12.47813 -87.30779 6035 ft 192 kts 278°
2026-05-06 01:11 12.47980 -87.32152 6034 ft 192 kts 278°
2026-05-06 01:11 12.48143 -87.33487 6034 ft 191 kts 278°
2026-05-06 01:12 12.48311 -87.34835 6033 ft 191 kts 278°
2026-05-06 01:12 12.48476 -87.36184 6032 ft 191 kts 278°
2026-05-06 01:12 12.48642 -87.37533 6032 ft 191 kts 278°
2026-05-06 01:12 12.48807 -87.38884 6032 ft 192 kts 278°
2026-05-06 01:13 12.48973 -87.40237 6032 ft 192 kts 278°
2026-05-06 01:13 12.49139 -87.41593 6016 ft 192 kts 278°
2026-05-06 01:13 12.49306 -87.42948 6015 ft 192 kts 278°
2026-05-06 01:13 12.49471 -87.44300 6015 ft 192 kts 278°
2026-05-06 01:14 12.49803 -87.47008 6015 ft 192 kts 278°
2026-05-06 01:14 12.49968 -87.48363 6015 ft 192 kts 278°
2026-05-06 01:14 12.50134 -87.49718 6015 ft 192 kts 278°
2026-05-06 01:15 12.50301 -87.51075 6015 ft 192 kts 278°
2026-05-06 01:15 12.50465 -87.52433 6015 ft 192 kts 278°
2026-05-06 01:15 12.50632 -87.53794 6015 ft 192 kts 278°
2026-05-06 01:15 12.50798 -87.55150 6014 ft 192 kts 278°
2026-05-06 01:16 12.50963 -87.56508 6014 ft 193 kts 278°
2026-05-06 01:16 12.51130 -87.57866 6014 ft 193 kts 278°
2026-05-06 01:16 12.51296 -87.59225 6014 ft 192 kts 278°
2026-05-06 01:16 12.51460 -87.60584 6014 ft 192 kts 278°
2026-05-06 01:17 12.51626 -87.61942 6014 ft 192 kts 278°
2026-05-06 01:17 12.51791 -87.63298 6014 ft 192 kts 278°
2026-05-06 01:17 12.51957 -87.64657 6014 ft 192 kts 278°
2026-05-06 01:17 12.52120 -87.66001 6012 ft 193 kts 278°
2026-05-06 01:18 12.52287 -87.67376 6012 ft 192 kts 278°
2026-05-06 01:18 12.52449 -87.68717 6011 ft 193 kts 278°
2026-05-06 01:18 12.52618 -87.70096 6012 ft 193 kts 278°
2026-05-06 01:18 12.52782 -87.71442 6012 ft 193 kts 278°
2026-05-06 01:19 12.52947 -87.72805 6012 ft 193 kts 278°
2026-05-06 01:19 12.53113 -87.74173 6011 ft 193 kts 278°
2026-05-06 01:19 12.53279 -87.75539 6012 ft 193 kts 278°
2026-05-06 01:19 12.53445 -87.76906 6012 ft 194 kts 278°
2026-05-06 01:20 12.53610 -87.78275 6013 ft 195 kts 278°
2026-05-06 01:20 12.53778 -87.79654 6014 ft 195 kts 278°
2026-05-06 01:20 12.53944 -87.81030 6014 ft 195 kts 278°
2026-05-06 01:20 12.54110 -87.82406 6013 ft 195 kts 278°
2026-05-06 01:21 12.54278 -87.83781 6013 ft 195 kts 278°
2026-05-06 01:21 12.54444 -87.85157 6013 ft 195 kts 278°
2026-05-06 01:21 12.54610 -87.86537 6014 ft 195 kts 278°
2026-05-06 01:21 12.54775 -87.87899 6013 ft 195 kts 278°
2026-05-06 01:22 12.54943 -87.89292 6014 ft 195 kts 278°
2026-05-06 01:22 12.55108 -87.90655 6013 ft 195 kts 278°
2026-05-06 01:22 12.55274 -87.92033 6013 ft 195 kts 278°
2026-05-06 01:22 12.55441 -87.93408 6013 ft 195 kts 278°
2026-05-06 01:23 12.55607 -87.94783 6013 ft 195 kts 278°
2026-05-06 01:23 12.55771 -87.96159 6012 ft 195 kts 278°
2026-05-06 01:23 12.55976 -87.97526 6006 ft 194 kts 288°
2026-05-06 01:23 12.56608 -87.98721 6000 ft 190 kts 312°
2026-05-06 01:24 12.57451 -87.99755 6004 ft 190 kts 313°
2026-05-06 01:24 12.58285 -88.00805 6005 ft 190 kts 313°
2026-05-06 01:24 12.59117 -88.01854 6004 ft 190 kts 313°
2026-05-06 01:24 12.59952 -88.02901 6005 ft 189 kts 313°
2026-05-06 01:25 12.60773 -88.03933 6004 ft 189 kts 313°
2026-05-06 01:25 12.61615 -88.04992 6005 ft 189 kts 313°
2026-05-06 01:25 12.62446 -88.06034 6005 ft 189 kts 313°
2026-05-06 01:25 12.63277 -88.07078 6005 ft 189 kts 313°
2026-05-06 01:26 12.64095 -88.08105 6004 ft 189 kts 313°
2026-05-06 01:26 12.64924 -88.09147 6004 ft 189 kts 313°
2026-05-06 01:26 12.65765 -88.10202 6004 ft 189 kts 313°
2026-05-06 01:26 12.66582 -88.11231 6004 ft 189 kts 313°
2026-05-06 01:27 12.67423 -88.12286 6004 ft 189 kts 313°
2026-05-06 01:27 12.68253 -88.13332 6002 ft 189 kts 313°
2026-05-06 01:27 12.69073 -88.14362 6004 ft 189 kts 313°
2026-05-06 01:27 12.69902 -88.15404 6004 ft 189 kts 312°
2026-05-06 01:28 12.70730 -88.16447 6004 ft 188 kts 313°
2026-05-06 01:28 12.71559 -88.17487 6004 ft 188 kts 313°
2026-05-06 01:28 12.72385 -88.18526 6002 ft 188 kts 313°
2026-05-06 01:28 12.73209 -88.19562 6003 ft 188 kts 312°
2026-05-06 01:29 12.74036 -88.20603 6003 ft 188 kts 313°
2026-05-06 01:29 12.74861 -88.21641 6003 ft 188 kts 312°
2026-05-06 01:29 12.75687 -88.22680 6003 ft 188 kts 313°
2026-05-06 01:29 12.76513 -88.23720 6003 ft 188 kts 313°
2026-05-06 01:30 12.77340 -88.24761 6003 ft 188 kts 313°
2026-05-06 01:30 12.78168 -88.25803 6003 ft 188 kts 313°
2026-05-06 01:30 12.78714 -88.26491 6003 ft 188 kts 313°
2026-05-06 01:30 12.79540 -88.27529 6003 ft 188 kts 312°
2026-05-06 01:31 12.80364 -88.28568 6003 ft 188 kts 312°
2026-05-06 01:31 12.81187 -88.29606 6003 ft 188 kts 312°
2026-05-06 01:31 12.82011 -88.30643 6003 ft 187 kts 312°
2026-05-06 01:31 12.82833 -88.31677 6002 ft 187 kts 312°
2026-05-06 01:32 12.83656 -88.32714 6002 ft 187 kts 312°
2026-05-06 01:32 12.84474 -88.33747 6002 ft 187 kts 312°
2026-05-06 01:32 12.85296 -88.34781 6002 ft 187 kts 313°
2026-05-06 01:32 12.86120 -88.35818 6002 ft 187 kts 312°
2026-05-06 01:33 12.86941 -88.36853 6000 ft 187 kts 312°
2026-05-06 01:33 12.87761 -88.37887 6001 ft 187 kts 313°
2026-05-06 01:33 12.88580 -88.38919 6001 ft 187 kts 312°
2026-05-06 01:33 12.89397 -88.39950 6001 ft 186 kts 312°
2026-05-06 01:34 12.90215 -88.40980 6001 ft 186 kts 312°
2026-05-06 01:34 12.91032 -88.42012 5999 ft 186 kts 312°
2026-05-06 01:34 12.91849 -88.43041 6001 ft 186 kts 312°
2026-05-06 01:34 12.92667 -88.44072 6001 ft 186 kts 312°
2026-05-06 01:35 12.93471 -88.45087 6000 ft 186 kts 312°
2026-05-06 01:35 12.94285 -88.46114 5998 ft 186 kts 312°
2026-05-06 01:35 12.95100 -88.47141 6000 ft 186 kts 312°
2026-05-06 01:35 12.95914 -88.48171 6000 ft 186 kts 312°
2026-05-06 01:36 12.96732 -88.49202 5997 ft 186 kts 312°
2026-05-06 01:36 12.97546 -88.50231 5999 ft 186 kts 312°
2026-05-06 01:36 12.98360 -88.51257 5999 ft 185 kts 312°
2026-05-06 01:36 12.99172 -88.52283 5999 ft 185 kts 312°
2026-05-06 01:37 12.99983 -88.53307 5999 ft 185 kts 312°
2026-05-06 01:37 13.00794 -88.54331 5997 ft 185 kts 312°
2026-05-06 01:37 13.01605 -88.55355 5999 ft 185 kts 312°
2026-05-06 01:37 13.02416 -88.56379 5999 ft 185 kts 312°
2026-05-06 01:38 13.03227 -88.57404 5999 ft 185 kts 312°
2026-05-06 01:38 13.04036 -88.58424 5998 ft 185 kts 312°
2026-05-06 01:38 13.04847 -88.59450 5998 ft 185 kts 312°
2026-05-06 01:38 13.05657 -88.60474 5996 ft 185 kts 312°
2026-05-06 01:39 13.06469 -88.61499 5998 ft 185 kts 312°
2026-05-06 01:39 13.07279 -88.62524 5997 ft 185 kts 312°
2026-05-06 01:39 13.08079 -88.63535 5998 ft 185 kts 312°
2026-05-06 01:39 13.08900 -88.64573 5995 ft 185 kts 312°
2026-05-06 01:40 13.09711 -88.65598 5997 ft 185 kts 312°
2026-05-06 01:40 13.10520 -88.66622 5998 ft 185 kts 312°
2026-05-06 01:40 13.11329 -88.67645 5998 ft 184 kts 312°
2026-05-06 01:40 13.12137 -88.68667 5997 ft 184 kts 312°
2026-05-06 01:41 13.12944 -88.69688 5994 ft 184 kts 312°
2026-05-06 01:41 13.13750 -88.70706 5995 ft 184 kts 312°
2026-05-06 01:41 13.14556 -88.71727 5994 ft 184 kts 312°
2026-05-06 01:41 13.15363 -88.72748 5995 ft 184 kts 312°
2026-05-06 01:42 13.16170 -88.73770 5996 ft 184 kts 312°
2026-05-06 01:42 13.16979 -88.74793 5996 ft 184 kts 312°
2026-05-06 01:42 13.17785 -88.75814 5996 ft 184 kts 312°
2026-05-06 01:42 13.18593 -88.76837 5995 ft 184 kts 312°
2026-05-06 01:43 13.19400 -88.77859 5996 ft 184 kts 312°
2026-05-06 01:43 13.20195 -88.78866 5996 ft 185 kts 312°
2026-05-06 01:43 13.21003 -88.79888 6003 ft 184 kts 311°
2026-05-06 01:43 13.21810 -88.80909 6002 ft 183 kts 311°
2026-05-06 01:44 13.22612 -88.81925 6002 ft 183 kts 311°
2026-05-06 01:44 13.23413 -88.82942 5999 ft 183 kts 311°
2026-05-06 01:44 13.24225 -88.83970 6001 ft 183 kts 311°
2026-05-06 01:44 13.25017 -88.84973 6001 ft 183 kts 311°
2026-05-06 01:45 13.25817 -88.85987 5999 ft 183 kts 311°
2026-05-06 01:45 13.26618 -88.87002 6001 ft 183 kts 311°
2026-05-06 01:45 13.27418 -88.88016 6001 ft 183 kts 311°
2026-05-06 01:45 13.28218 -88.89030 6000 ft 183 kts 311°
2026-05-06 01:46 13.29022 -88.90048 6000 ft 183 kts 311°
2026-05-06 01:46 13.29824 -88.91067 6000 ft 183 kts 311°
2026-05-06 01:46 13.30625 -88.92082 6000 ft 183 kts 311°
2026-05-06 01:46 13.31424 -88.93097 6000 ft 183 kts 311°
2026-05-06 01:47 13.32227 -88.94115 6000 ft 183 kts 311°
2026-05-06 01:47 13.33015 -88.95116 6000 ft 183 kts 311°
2026-05-06 01:47 13.33816 -88.96130 6000 ft 182 kts 311°
2026-05-06 01:47 13.34615 -88.97144 5996 ft 183 kts 311°
2026-05-06 01:48 13.35416 -88.98161 6000 ft 183 kts 311°
2026-05-06 01:48 13.36217 -88.99176 6000 ft 183 kts 311°
2026-05-06 01:48 13.37019 -89.00196 6000 ft 183 kts 311°
2026-05-06 01:48 13.37819 -89.01212 6000 ft 183 kts 311°
2026-05-06 01:49 13.38609 -89.02214 5999 ft 182 kts 311°
2026-05-06 01:49 13.39406 -89.03227 5999 ft 182 kts 311°
2026-05-06 01:49 13.40203 -89.04238 5999 ft 182 kts 311°
2026-05-06 01:49 13.40999 -89.05251 5998 ft 182 kts 311°
2026-05-06 01:50 13.41765 -89.06283 5996 ft 182 kts 302°
2026-05-06 01:50 13.42118 -89.07533 5998 ft 185 kts 275°
2026-05-06 01:50 13.41936 -89.08834 6000 ft 186 kts 249°
2026-05-06 01:50 13.41243 -89.09938 6003 ft 185 kts 223°
2026-05-06 01:51 13.40335 -89.10791 6004 ft 184 kts 221°
2026-05-06 01:51 13.39400 -89.11690 6008 ft 184 kts 221°
2026-05-06 01:51 13.38466 -89.12590 6008 ft 184 kts 221°
2026-05-06 01:51 13.37525 -89.13491 6009 ft 184 kts 221°
2026-05-06 01:52 13.36586 -89.14390 6009 ft 185 kts 221°
2026-05-06 01:52 13.35645 -89.15290 5917 ft 184 kts 221°
2026-05-06 01:52 13.34725 -89.16176 5601 ft 178 kts 221°
2026-05-06 01:52 13.33853 -89.17067 5184 ft 176 kts 232°
2026-05-06 01:53 13.33380 -89.18210 4776 ft 175 kts 258°
2026-05-06 01:53 13.33382 -89.19416 4373 ft 168 kts 282°
2026-05-06 01:53 13.33823 -89.20492 3965 ft 162 kts 304°
2026-05-06 01:53 13.34600 -89.21301 3522 ft 160 kts 326°
2026-05-06 01:54 13.35614 -89.21757 3025 ft 161 kts 347°
2026-05-06 01:54 13.36730 -89.21794 2526 ft 161 kts
2026-05-06 01:54 13.37761 -89.21399 2203 ft 151 kts 32°
2026-05-06 01:54 13.38499 -89.20751 2188 ft 132 kts 51°
2026-05-06 01:55 13.38951 -89.19993 2187 ft 119 kts 69°
2026-05-06 01:55 13.39241 -89.19211 2134 ft 117 kts 69°
2026-05-06 01:55 13.39535 -89.18423 2016 ft 120 kts 71°
2026-05-06 01:55 13.39817 -89.17606 1886 ft 123 kts 70°
2026-05-06 01:56 13.40117 -89.16772 1752 ft 127 kts 71°
2026-05-06 01:56 13.40422 -89.15909 1611 ft 131 kts 70°
2026-05-06 01:56 13.40736 -89.15025 1471 ft 130 kts 71°
2026-05-06 01:56 13.41042 -89.14168 1328 ft 127 kts 70°
2026-05-06 01:57 13.41338 -89.13324 1181 ft 124 kts 70°
2026-05-06 01:57 13.41637 -89.12499 1042 ft 122 kts 70°
2026-05-06 01:57 13.41923 -89.11678 907 ft 122 kts 70°
2026-05-06 01:57 13.42208 -89.10887 787 ft 108 kts 70°
2026-05-06 01:58 13.42442 -89.10227 665 ft 91 kts 69°
2026-05-06 01:58 13.42647 -89.09647 567 ft 83 kts 70°
2026-05-06 01:58 13.42840 -89.09114 474 ft 77 kts 70°
2026-05-06 01:58 13.43026 -89.08595 394 ft 79 kts 68°
2026-05-06 01:59 13.43222 -89.08046 314 ft 87 kts 70°
2026-05-06 01:59 13.43428 -89.07443 214 ft 88 kts 70°
2026-05-06 01:59 13.43636 -89.06853 100 ft 86 kts 68°
2026-05-06 01:59 13.43814 -89.06347 91 ft 65 kts 71°
2026-05-06 02:00 13.43933 -89.06011 90 ft 41 kts 70°
2026-05-06 02:00 13.44041 -89.05851 91 ft 18 kts 348°
2026-05-06 02:00 13.44119 -89.05875 90 ft 8 kts 339°
2026-05-06 02:00 13.44177 -89.05898 90 ft 11 kts 338°
2026-05-06 02:01 13.44226 -89.05968 90 ft 18 kts 256°
2026-05-06 02:01 13.44177 -89.06113 90 ft 25 kts 251°
2026-05-06 02:01 13.44116 -89.06275 91 ft 22 kts 248°
2026-05-06 02:01 13.44080 -89.06383 91 ft 10 kts 250°
2026-05-06 02:02 13.44075 -89.06450 91 ft 13 kts 268°
2026-05-06 02:02 13.44083 -89.06549 91 ft 17 kts 305°
2026-05-06 02:02 13.44168 -89.06597 91 ft 0 kts 337°